コワル-ヴァーヴロヴァー彗星

134P/Kowal-Vavrova (2014)

English version
Home page
Updated on June 11, 2016

---------------------------------------------------------------------

・ プロフィール

・ 写真集

・ 軌道要素

Epoch 2014 May 23.0 TT = JDT 2456800.5
T 2014 May 21.49482 TT                                  MPC
q   2.5713321            (2000.0)            P               Q
n   0.06336331     Peri.   18.58418     -0.75842496     +0.65113461
a   6.2312828      Node   202.12064     -0.60717999     -0.72179458
e   0.5873511      Incl.    4.34878     -0.23690514     -0.23459817
P  15.6
From 902 observations 1983 May 8-2014 July 3, mean residual 0".6.
     Nongravitational parameters A1 = +3.52, A2 = +0.1405.

・ 星図

・ 光度変化

        m1 = 4.5 + 5 logΔ + 20.0 log r

---------------------------------------------------------------------

軌道要素はM.P.E.C. 2014-N57に掲載されたものです。
星図はステラナビゲータ Ver.8 (アストロアーツ) で作成したものです。
光度グラフはComet for Windowsで作成したものです。

---------------------------------------------------------------------

Copyright(C) Seiichi Yoshida (comet@aerith.net). All rights reserved.